SUPERBIRD 8

Last updated on Sept. 30, 2020, 5:50 a.m. UTC

1 43271U 18033A   20273.88782410 -.00000109  00000-0  00000-0 0  9995
2 43271   0.0198 234.6698 0001378 306.0412 310.0063  1.00271867  9138
UTC
Height (km)
Latitude
Longitude
Inclination
Orbital Period
UTC large
Height (km)
Speed (km/s)
/
Latitude / Longitude
Inclination (degrees)
Orbital Period (minutes)
Azimuth
Elevation
Range (km)
Doppler Factor
iOS Compass Heading
iOS Angle

Next 30 passes for location: Hong Kong

Rise time Rise Azimuth (degrees) Set time Set Azimuth (degrees) Duration Max altitude (degrees)

No matching passes for this satellites